Lima, OH

5:30 PM EDT on July 20, 2017 (GMT -0400)
Lima Allen County

Weather History for KAOH - August, 2013

Change the Weather History Date:

Tuesday, August 6, 2013

  Actual Average (KFDY) Record (KFDY)
Temperature  
Mean Temperature 72 °F -  
Max Temperature 80 °F 79 °F 94 °F (1955)
Min Temperature 64 °F 60 °F 48 °F (1997)
Cooling Degree Days 7    
Growing Degree Days 22 (Base 50)    
Moisture  
Dew Point 61 °F    
Average Humidity 68    
Maximum Humidity 84    
Minimum Humidity 56    
Precipitation  
Precipitation 0.00 in - - ()
Sea Level Pressure  
Sea Level Pressure 29.95 in    
Wind  
Wind Speed 7 mph (South)    
Max Wind Speed 13 mph    
Max Gust Speed -    
Visibility 10 miles    
Events      
Averages and records for this station are not official NWS values.
T = Trace of Precipitation, MM = Missing Value Source: NWS Daily Summary

Daily Weather History Graph

Daily Weather History Graph

Search for Another Location

Airport or City:

Trip Planner

Search our weather history database for the weather conditions in past years. The results will help you decide how hot, cold, wet, or windy it might be!

Date:

Astronomy

Aug. 06, 2013 Rise Set
Actual Time 6:37 AM EDT 8:45 PM EDT
Civil Twilight 6:07 AM EDT 9:15 PM EDT
Nautical Twilight 5:30 AM EDT 9:52 PM EDT
Astronomical Twilight 4:50 AM EDT 10:32 PM EDT
Moon 6:28 AM EDT (8/6) 8:19 PM EDT (8/6)
Length of Visible Light 15h 07m
Length of Day
14h 07m
Waning Crescent, 0% of the Moon is Illuminated
Aug 6
Waning Crescent
Aug 6
New
Aug 14
First Quarter
Aug 20
Full
Aug 28
Last Quarter

Hourly Weather History & Observations

Time (EDT) Temp. Heat Index Dew Point Humidity Pressure Visibility Wind Dir Wind Speed Gust Speed Precip Events Conditions
12:53 AM 66.0 °F - 59.0 °F 78% 29.99 in 10.0 mi South 3.5 mph - N/A   Overcast
1:53 AM 66.0 °F - 59.0 °F 78% 29.97 in 10.0 mi SSE 5.8 mph - N/A   Overcast
2:53 AM 66.0 °F - 57.9 °F 75% 29.96 in 10.0 mi SSE 5.8 mph - N/A   Overcast
3:53 AM 66.0 °F - 57.9 °F 75% 29.96 in 10.0 mi SSE 5.8 mph - N/A   Overcast
4:53 AM 64.9 °F - 57.9 °F 78% 29.96 in 10.0 mi SSE 5.8 mph - N/A   Overcast
5:53 AM 64.9 °F - 57.0 °F 75% 29.95 in 10.0 mi SSE 6.9 mph - N/A   Overcast
6:53 AM 66.0 °F - 55.9 °F 70% 29.96 in 10.0 mi South 8.1 mph - N/A   Overcast
7:53 AM 66.0 °F - 55.9 °F 70% 29.96 in 10.0 mi SSE 6.9 mph - N/A   Mostly Cloudy
8:53 AM 69.1 °F - 57.0 °F 65% 29.98 in 10.0 mi South 9.2 mph - N/A   Mostly Cloudy
9:53 AM 69.1 °F - 57.0 °F 65% 29.98 in 10.0 mi South 9.2 mph - N/A   Overcast
10:53 AM 73.9 °F - 59.0 °F 59% 29.97 in 10.0 mi South 11.5 mph - N/A   Mostly Cloudy
11:23 AM 75.2 °F - 60.8 °F 61% 29.97 in 1.5 mi SSW 11.5 mph - N/A   Haze
11:38 AM 75.2 °F - 60.8 °F 61% 29.97 in 10.0 mi South 12.7 mph - N/A   Mostly Cloudy
11:53 AM 75.9 °F - 61.0 °F 60% 29.95 in 10.0 mi South 10.4 mph - N/A   Scattered Clouds
12:53 PM 78.1 °F - 62.1 °F 58% 29.95 in 10.0 mi South 9.2 mph - N/A   Mostly Cloudy
1:53 PM 78.1 °F - 62.1 °F 58% 29.96 in 10.0 mi SSW 6.9 mph - N/A   Overcast
2:53 PM 79.0 °F - 62.1 °F 56% 29.95 in 10.0 mi South 11.5 mph - N/A   Mostly Cloudy
3:53 PM 79.0 °F - 63.0 °F 58% 29.94 in 10.0 mi South 8.1 mph - N/A   Overcast
4:53 PM 80.1 °F 81.7 °F 64.0 °F 58% 29.93 in 10.0 mi South 8.1 mph - N/A   Scattered Clouds
5:53 PM 79.0 °F - 64.0 °F 60% 29.93 in 10.0 mi South 8.1 mph - N/A   Mostly Cloudy
6:53 PM 79.0 °F - 64.9 °F 62% 29.93 in 10.0 mi South 4.6 mph - N/A   Overcast
7:53 PM 77.0 °F - 64.0 °F 64% 29.92 in 10.0 mi SSE 5.8 mph - N/A   Clear
8:53 PM 73.0 °F - 64.0 °F 73% 29.93 in 10.0 mi South 3.5 mph - N/A   Clear
9:53 PM 71.1 °F - 64.0 °F 78% 29.92 in 10.0 mi SSE 5.8 mph - N/A   Clear
10:53 PM 71.1 °F - 64.0 °F 78% 29.92 in 10.0 mi South 3.5 mph - N/A   Clear
11:53 PM 69.1 °F - 64.0 °F 84% 29.93 in 10.0 mi SSE 4.6 mph - N/A   Clear